Saint Martin Island, Netherlands Antilles

8:17 AM on February 25, 2017 (GMT +0000)
Saint Martin Island

Weather History for 78866 - May, 2013

Change the Weather History Date:

Monday, May 20, 2013

  Actual Average Record
Temperature  
Mean Temperature 82 °F -  
Max Temperature 86 °F 85 °F - ()
Min Temperature 78 °F 76 °F - ()
Cooling Degree Days 17    
Growing Degree Days 32 (Base 50)    
Moisture  
Dew Point 70 °F    
Average Humidity 66    
Maximum Humidity 74    
Minimum Humidity 53    
Precipitation  
Precipitation 0.00 in 0.10 in - ()
Sea Level Pressure  
Sea Level Pressure 30.02 in    
Wind  
Wind Speed 13 mph ()    
Max Wind Speed 15 mph    
Max Gust Speed -    
Visibility 6.2 miles    
Events      
T = Trace of Precipitation, MM = Missing Value Source: Averaged Metar Reports

Daily Weather History Graph

Daily Weather History Graph

Search for Another Location

Airport or City:

Trip Planner

Search our weather history database for the weather conditions in past years. The results will help you decide how hot, cold, wet, or windy it might be!

Date:

Astronomy

May. 20, 2013 Rise Set
Actual Time 9:37 AM UTC 10:40 PM UTC
Civil Twilight 9:14 AM UTC 11:03 PM UTC
Nautical Twilight 8:46 AM UTC 11:31 PM UTC
Astronomical Twilight 8:18 AM UTC 12:00 AM UTC
Moon 6:20 PM UTC (5/20) 5:48 AM UTC (5/20)
Length of Visible Light 13h 49m
Length of Day
13h 02m
Waxing Gibbous, 73% of the Moon is Illuminated
May 20
Waxing Gibbous
May 25
Full
May 31
Last Quarter
Jun 8
New
Jun 16
First Quarter

Hourly Weather History & Observations

Time (GMT) Temp. Heat Index Dew Point Humidity Pressure Visibility Wind Dir Wind Speed Gust Speed Precip Events Conditions
12:00 AM 80 °F - 71 °F 66% 30.04 in 25 mi East 15.0 mph - -   Scattered Clouds
12:00 AM 80.6 °F 84.6 °F 71.6 °F 74% 30.04 in 6.2 mi East 15.0 mph - N/A   Partly Cloudy
1:00 AM 80.6 °F 83.9 °F 69.8 °F 70% 30.04 in 6.2 mi East 15.0 mph - N/A   Partly Cloudy
2:00 AM 80.6 °F 83.9 °F 69.8 °F 70% 30.04 in 6.2 mi East 15.0 mph - N/A   Partly Cloudy
3:00 AM 80 °F - 70 °F 65% 30.06 in 25 mi East 15.0 mph - -   Scattered Clouds
3:00 AM 80.6 °F 83.9 °F 69.8 °F 70% 30.04 in 6.2 mi East 15.0 mph - N/A   Partly Cloudy
4:00 AM 80.6 °F 83.9 °F 69.8 °F 70% 30.04 in 6.2 mi East 15.0 mph - N/A   Partly Cloudy
5:00 AM 80.6 °F 83.9 °F 69.8 °F 70% 30.04 in 6.2 mi East 15.0 mph - N/A   Partly Cloudy
6:00 AM 80 °F - 70 °F 65% 30.01 in 25 mi ESE 15.0 mph - -   Partly Cloudy
6:00 AM 78.8 °F - 69.8 °F 74% 30.01 in 6.2 mi East 15.0 mph - N/A   Scattered Clouds
7:00 AM 78.8 °F - 69.8 °F 74% 29.98 in 6.2 mi East 15.0 mph - N/A   Partly Cloudy
8:00 AM 78.8 °F - 69.8 °F 74% 29.98 in 6.2 mi East 12.7 mph - N/A   Partly Cloudy
9:00 AM 79 °F - 70 °F 67% 29.99 in 25 mi East 12.7 mph - -   Scattered Clouds
9:00 AM 78.8 °F - 69.8 °F 74% 29.98 in 6.2 mi East 12.7 mph - N/A   Partly Cloudy
10:00 AM 78.8 °F - 69.8 °F 74% 30.01 in 6.2 mi East 12.7 mph - N/A   Partly Cloudy
11:00 AM 80.6 °F 83.9 °F 69.8 °F 70% 30.01 in 6.2 mi East 9.2 mph - N/A   Partly Cloudy
12:00 PM 82 °F - 70 °F 58% 30.04 in 28 mi ESE 9.2 mph - -   Scattered Clouds
12:00 PM 82.4 °F 86.3 °F 69.8 °F 66% 30.04 in 6.2 mi East 9.2 mph - N/A   Partly Cloudy
1:00 PM 84.2 °F 88.4 °F 69.8 °F 62% 30.04 in 6.2 mi East 15.0 mph - N/A   Partly Cloudy
2:00 PM 84.2 °F 88.4 °F 69.8 °F 62% 30.04 in 6.2 mi East 15.0 mph - N/A   Partly Cloudy
3:00 PM 84 °F - 70 °F 53% 30.05 in 31 mi East 15.0 mph - -   Partly Cloudy
3:00 PM 84.2 °F 88.4 °F 69.8 °F 62% 30.04 in 6.2 mi East 15.0 mph - N/A   Scattered Clouds
4:00 PM 86.0 °F 90.4 °F 69.8 °F 58% 30.04 in 6.2 mi East 15.0 mph - N/A   Partly Cloudy
5:00 PM 86.0 °F 90.4 °F 69.8 °F 58% 30.01 in 6.2 mi East 15.0 mph - N/A   Scattered Clouds
6:00 PM 84 °F - 71 °F 56% 30.01 in 28 mi East 15.0 mph - -   Partly Cloudy
6:00 PM 84.2 °F 88.4 °F 69.8 °F 62% 30.01 in 6.2 mi East 15.0 mph - N/A   Scattered Clouds
7:00 PM 86.0 °F 90.4 °F 69.8 °F 58% 29.98 in 6.2 mi East 15.0 mph - N/A   Scattered Clouds
8:00 PM 84.2 °F 87.3 °F 68.0 °F 58% 29.98 in 6.2 mi East 15.0 mph - N/A   Scattered Clouds
9:00 PM 83 °F - 70 °F 57% 29.99 in 28 mi East 15.0 mph - -   Partly Cloudy
9:00 PM 82.4 °F 86.3 °F 69.8 °F 66% 29.98 in 6.2 mi East 15.0 mph - N/A   Scattered Clouds
10:00 PM 80.6 °F 84.6 °F 71.6 °F 74% 29.98 in 6.2 mi East 15.0 mph - N/A   Scattered Clouds
11:00 PM 80.6 °F 84.6 °F 71.6 °F 74% 30.01 in 6.2 mi East 15.0 mph - N/A   Mostly Cloudy